Date,TemperatureHighF,TemperatureAvgF,TemperatureLowF,DewpointHighF,DewpointAvgF,DewpointLowF,HumidityHigh,HumidityAvg,HumidityLow,PressureMaxIn,PressureMinIn,WindSpeedMaxMPH,WindSpeedAvgMPH,GustSpeedMaxMPH,PrecipitationSumIn
2013-3-1,48.2,36.6,26.4,32.4,-53.7,-61.6,98,2,1,29.95,29.84,11,3,0,0.00
2013-3-2,38.3,32.4,24.8,35.8,-53.5,-62.6,98,5,1,30.02,29.92,11,4,0,0.00
2013-3-3,56.5,35.5,19.4,32.4,-51.0,-66.0,96,5,1,30.04,29.85,10,1,0,0.00
2013-3-4,71.8,52.9,28.9,60.9,-35.6,-60.0,98,10,1,29.85,29.59,14,5,0,0.00
2013-3-5,69.3,56.7,40.5,64.7,-37.8,-52.8,98,5,1,29.95,29.62,21,5,0,0.02
2013-3-6,54.9,42.3,30.0,31.7,-46.1,-59.3,98,5,1,30.09,29.95,13,4,0,0.00
2013-3-7,64.6,43.9,29.5,33.2,-47.9,-59.6,79,3,1,30.13,29.98,9,2,0,0.00
2013-3-8,74.3,51.8,30.4,50.8,-40.0,-59.1,98,6,1,30.07,29.90,5,1,0,0.00
2013-3-9,75.2,61.0,46.2,62.5,-24.2,-49.3,98,14,1,29.93,29.70,11,3,0,0.00
2013-3-10,77.9,63.9,55.2,73.0,-19.9,-43.1,98,12,1,29.72,29.56,16,6,0,1.81
2013-3-11,57.4,47.9,36.3,49.0,-44.5,-55.4,97,3,1,29.78,29.63,10,4,0,1.44
2013-3-12,65.3,45.5,29.3,43.1,-47.5,-59.8,90,3,1,29.99,29.78,9,2,0,0.00
2013-3-13,59.9,46.3,33.6,44.5,-38.3,-57.1,98,10,1,30.18,29.99,14,4,0,0.00
2013-3-14,70.3,48.4,30.2,46.4,-37.4,-59.2,98,10,1,30.22,30.01,6,1,0,0.00
2013-3-15,79.2,58.5,36.0,32.9,-40.9,-55.6,50,2,1,30.01,29.78,10,3,0,0.00
2013-3-16,80.1,63.4,45.3,58.6,-34.6,-49.8,98,4,1,29.82,29.62,10,4,0,0.00
2013-3-17,80.1,63.7,45.5,63.0,-34.8,-49.7,90,3,1,29.73,29.53,10,3,0,0.00
2013-3-18,84.6,67.2,53.6,75.3,-31.8,-44.7,98,4,1,29.72,29.42,12,4,0,0.72
2013-3-19,75.6,57.8,42.8,41.9,-41.2,-51.4,75,2,1,29.85,29.73,6,0,0,0.00
2013-3-20,66.6,54.1,40.5,40.7,-43.3,-52.8,98,2,1,29.96,29.81,8,1,0,0.00
2013-3-21,63.9,48.7,35.1,39.8,-44.4,-56.1,98,4,1,29.85,29.61,4,0,0,0.00
2013-3-22,52.5,48.0,42.1,47.1,-36.4,-51.8,89,8,1,29.69,29.55,6,0,0,0.38
2013-3-23,79.3,63.3,52.5,76.0,-21.6,-45.1,98,13,1,29.57,29.31,6,0,0,0.47
2013-3-24,59.5,52.3,40.5,-41.2,-45.6,-52.8,1,1,1,29.76,29.32,18,5,0,0.10
2013-3-25,53.1,42.0,32.4,32.8,-46.3,-57.8,98,5,1,30.03,29.76,17,6,0,0.00
2013-3-26,49.6,37.9,27.3,32.6,-52.8,-61.0,90,2,1,30.14,30.03,11,2,0,0.00
2013-3-27,64.0,34.0,23.2,29.0,-55.5,-99.9,61,2,1,30.15,30.02,0,-22,0,0.00
2013-3-28,74.8,50.3,30.2,47.8,-44.2,-59.2,94,3,1,30.12,29.95,5,0,0,0.00
2013-3-29,77.0,59.3,38.3,47.8,-38.7,-54.2,73,2,1,30.04,29.87,8,2,0,0.00
2013-3-30,73.4,60.9,48.4,66.0,-32.7,-47.9,98,6,1,29.91,29.71,11,2,0,0.00
2013-3-31,73.2,60.0,52.2,71.4,-34.3,-45.6,98,5,1,29.76,29.59,12,1,0,0.37